,

(GMT )
Prerov

Weather History for LKPO - March, 2013

Change the Weather History Date:

Wednesday, March 27, 2013

  Actual Average Record
Temperature  
Mean Temperature 28 °F -  
Max Temperature 33 °F - - ()
Min Temperature 23 °F - - ()
Degree Days  
Heating Degree Days 37    
Moisture  
Dew Point 20 °F    
Average Humidity 72    
Maximum Humidity 86    
Minimum Humidity 55    
Precipitation  
Precipitation 0.00 in - - ()
Sea Level Pressure  
Sea Level Pressure 29.85 in    
Wind  
Wind Speed 16 mph ()    
Max Wind Speed 23 mph    
Max Gust Speed -    
Visibility 5.6 miles    
Events Snow    
T = Trace of Precipitation, MM = Missing Value Source: Averaged Metar Reports

Daily Weather History Graph

Daily Weather History Graph

Search for Another Location

Airport or City:

Trip Planner

Search our weather history database for the weather conditions in past years. The results will help you decide how hot, cold, wet, or windy it might be!

Date:

Astronomy

Mar. 27, 2013 Rise Set
Actual Time 5:38 AM CET 6:14 PM CET
Civil Twilight 5:06 AM CET 6:46 PM CET
Nautical Twilight 4:28 AM CET 7:24 PM CET
Astronomical Twilight 3:48 AM CET 8:04 PM CET
Moon 6:43 PM CET (3/27) 5:16 AM CET (3/27)
Length of Visible Light 13h 40m
Length of Day
12h 35m
Full, 100% of the Moon is Illuminated
Mar 27
Full
Apr 3
Last Quarter
Apr 10
New
Apr 18
First Quarter
Apr 25
Full

Hourly Weather History & Observations

Time (CET) Temp. Windchill Dew Point Humidity Pressure Visibility Wind Dir Wind Speed Gust Speed Precip Events Conditions
12:00 AM 26.6 °F 12.0 °F 15.8 °F 64% 29.80 in 6.2 mi ENE 23.0 mph - N/A   Overcast
1:00 AM 24.8 °F 9.6 °F 15.8 °F 69% 29.80 in 6.2 mi ENE 23.0 mph - N/A   Overcast
2:00 AM 24.8 °F 11.5 °F 17.6 °F 74% 29.80 in 5.0 mi ENE 17.3 mph - N/A Snow Light Snow
3:00 AM 23.0 °F 9.2 °F 19.4 °F 86% 29.80 in 3.7 mi ENE 17.3 mph - N/A Snow Light Snow
4:00 AM 23.0 °F 8.0 °F 19.4 °F 86% 29.80 in 5.0 mi ENE 20.7 mph - N/A Snow Light Snow
5:00 AM 23.0 °F 8.3 °F 17.6 °F 80% 29.80 in 5.0 mi ENE 19.6 mph - N/A Snow Light Snow
6:00 AM 23.0 °F 9.2 °F 17.6 °F 80% 29.80 in 6.2 mi ENE 17.3 mph - N/A   Overcast
7:00 AM 24.8 °F 11.5 °F 19.4 °F 80% 29.83 in 6.2 mi ENE 17.3 mph - N/A   Overcast
8:00 AM 26.6 °F 13.4 °F 19.4 °F 74% 29.83 in 6.2 mi ENE 18.4 mph - N/A Snow Light Snow
9:00 AM 28.4 °F 15.4 °F 19.4 °F 69% 29.83 in 3.7 mi ENE 19.6 mph - N/A Snow Light Snow
10:00 AM 30.2 °F 17.8 °F 19.4 °F 64% 29.83 in 5.0 mi ENE 19.6 mph - N/A Snow Light Snow
11:00 AM 30.2 °F 18.9 °F 19.4 °F 64% 29.86 in 6.2 mi ENE 16.1 mph - N/A   Mostly Cloudy
12:00 PM 32.0 °F 20.8 °F 17.6 °F 55% 29.86 in 6.2 mi ENE 17.3 mph - N/A   Mostly Cloudy
1:00 PM 32.0 °F 21.2 °F 19.4 °F 60% 29.86 in 6.2 mi ENE 16.1 mph - N/A   Mostly Cloudy
2:00 PM 33.8 °F 24.3 °F 19.4 °F 56% 29.86 in 6.2 mi ENE 13.8 mph - N/A   Mostly Cloudy
3:00 PM 32.0 °F 22.1 °F 19.4 °F 60% 29.86 in 6.2 mi ENE 13.8 mph - N/A   Mostly Cloudy
4:00 PM 32.0 °F 22.1 °F 19.4 °F 60% 29.86 in 6.2 mi ENE 13.8 mph - N/A   Mostly Cloudy
5:00 PM 32.0 °F 21.6 °F 21.2 °F 64% 29.89 in 6.2 mi ENE 15.0 mph - N/A   Mostly Cloudy
6:00 PM 30.2 °F 19.8 °F 23.0 °F 75% 29.89 in 6.2 mi ENE 13.8 mph - N/A   Mostly Cloudy
7:00 PM 30.2 °F 20.2 °F 23.0 °F 75% 29.89 in 6.2 mi ENE 12.7 mph - N/A   Mostly Cloudy
8:00 PM 28.4 °F 19.1 °F 23.0 °F 80% 29.92 in 6.2 mi ENE 10.4 mph - N/A   Mostly Cloudy
9:00 PM 28.4 °F 18.5 °F 23.0 °F 80% 29.92 in 6.2 mi ENE 11.5 mph - N/A   Overcast
10:00 PM 28.4 °F 19.1 °F 24.8 °F 86% 29.92 in 4.3 mi ENE 10.4 mph - N/A Snow Light Snow
11:00 PM 28.4 °F 19.7 °F 23.0 °F 80% 29.92 in 4.3 mi ENE 9.2 mph - N/A   Overcast